C/2019 U5 ( PanSTARRS )

Japanese version
Home page
Updated on April 28, 2023

---------------------------------------------------------------------

* Profile

Discovery Date October 22, 2019
Magnitude 21.1 mag
Discoverer Pan-STARRS 1 telescope (Haleakala)

* Pictures

* Orbital Elements

Epoch 2023 Feb. 25.0 TT = JDT 2460000.5
T 2023 Mar. 29.85173 TT                                 Rudenko
q   3.6241923            (2000.0)            P               Q
z  -0.0004088      Peri.  181.49738     -0.99907955     +0.00774683
 +/-0.0000003      Node     2.63731     -0.02311353     +0.73134212
e   1.0014817      Incl.  113.52061     -0.03613607     -0.68196678
>From 3250 observations 2019 Oct. 11-2023 Feb. 27, mean residual 0".4.

* Finding Charts

* Magnitudes Graph

        m1 = 2.5 + 5 log d + 12.0 log r

---------------------------------------------------------------------

The orbital elements are published on M.P.E.C. 2023-D72.
The charts are made with StellaNavigator Ver.10 (AstroArts).
The magnitudes graphs are made with Comet for Windows.

---------------------------------------------------------------------

Copyright(C) Seiichi Yoshida (comet@aerith.net). All rights reserved.